Date String (YYYY-MM-DD hh:mm:ss) UTC,Instrument flags,Ambient pressure (hPa),Sample flow (lpm),Bypass flow (lpm),Sample temperature (°C),Ambient temperature (°C),ASC tube jacket temperature (°C),LED temperature (°C),Box temperature (°C),Sample RH (%),Span deviation,Mass concentration (μg/m³),Mass concentration (μg/m³),Mass concentration (μg/m³)
DateTimeUTC,F1_M11,P_M11,Q1_M11,Q2_M11,T1_M11,T2_M11,T3_M11,T4_M11,T5_M11,U1_M11,ZSPAN_M11,X0_M11,X2_M11,X1_M11
2021-10-19 03:00:00,,0818.4,5.01,0.00,30.2,29.3,00.0,39.2,32.0,10.7,0000.0,0014.85,0003.86,0002.33
2021-10-19 03:01:00,,0818.4,5.00,0.00,30.2,29.3,00.0,39.2,32.0,10.7,0000.0,0016.18,0003.90,0002.34
2021-10-19 03:02:00,,0818.4,4.99,0.00,30.2,29.3,00.0,39.2,32.0,10.7,0000.0,0016.42,0003.96,0002.35
2021-10-19 03:03:00,,0818.4,5.00,0.00,30.2,29.3,00.0,39.2,32.0,10.7,0000.0,0016.27,0004.03,0002.36
2021-10-19 03:04:00,,0818.4,5.01,0.00,30.2,29.3,00.0,39.2,32.0,10.7,0000.0,0015.52,0004.02,0002.35
2021-10-19 03:05:00,,0818.4,4.99,0.00,30.3,29.4,00.0,39.3,32.0,10.7,0000.0,0014.25,0004.01,0002.35
2021-10-19 03:06:00,,0818.4,5.00,0.00,30.3,29.4,00.0,39.3,32.0,10.8,0000.0,0014.37,0004.02,0002.34
2021-10-19 03:07:00,,0818.4,5.01,0.00,30.3,29.4,00.0,39.3,32.0,10.7,0000.0,0014.41,0004.03,0002.35
2021-10-19 03:08:00,,0818.4,4.97,0.00,30.3,28.5,00.0,39.3,31.8,10.7,0000.0,0014.65,0004.03,0002.35
2021-10-19 03:09:00,,0818.4,5.00,0.00,30.1,26.5,00.0,39.3,31.3,10.8,0000.0,0014.02,0004.03,0002.34
2021-10-19 03:10:00,,0818.4,5.02,0.00,30.0,26.2,00.0,39.2,31.2,10.9,0000.0,0013.14,0003.95,0002.31
2021-10-19 03:11:00,,0818.4,4.98,0.00,29.9,26.6,00.0,39.2,31.2,11.0,0000.0,0013.17,0003.94,0002.32
2021-10-19 03:12:00,,0818.4,5.01,0.00,29.8,27.0,00.0,39.1,31.3,11.0,0000.0,0012.04,0003.92,0002.32
2021-10-19 03:13:00,,0818.4,5.00,0.00,29.8,27.4,00.0,39.1,31.3,11.0,0000.0,0011.84,0003.84,0002.30
2021-10-19 03:14:00,,0818.4,5.00,0.00,29.8,27.7,00.0,39.0,31.4,11.0,0000.0,0012.06,0003.79,0002.28
2021-10-19 03:15:00,,0818.4,5.01,0.00,29.8,27.9,00.0,39.0,31.4,11.0,0000.0,0012.02,0003.82,0002.27
2021-10-19 03:16:00,,0818.4,4.99,0.00,29.8,28.1,00.0,39.0,31.5,11.0,0000.0,0012.67,0003.84,0002.27
2021-10-19 03:17:00,,0818.4,5.00,0.00,29.8,28.3,00.0,39.0,31.5,11.0,0000.0,0011.67,0003.86,0002.27
2021-10-19 03:18:00,,0818.4,5.00,0.00,29.8,28.4,00.0,39.0,31.5,11.0,0000.0,0011.82,0003.89,0002.25
2021-10-19 03:19:00,,0818.4,4.99,0.00,29.8,28.5,00.0,39.0,31.6,10.9,0000.0,0012.05,0003.89,0002.24
2021-10-19 03:20:00,,0818.4,5.00,0.00,29.8,28.6,00.0,39.0,31.6,10.9,0000.0,0012.29,0003.90,0002.23
2021-10-19 03:21:00,,0818.5,5.00,0.00,29.9,28.6,00.0,39.0,31.6,10.9,0000.0,0012.45,0003.94,0002.22
2021-10-19 03:22:00,,0818.5,5.00,0.00,29.9,28.7,00.0,39.0,31.6,10.8,0000.0,0012.71,0003.95,0002.21
2021-10-19 03:23:00,,0818.5,5.00,0.00,29.9,28.8,00.0,39.0,31.6,10.8,0000.0,0012.66,0003.90,0002.20
2021-10-19 03:24:00,,0818.5,4.98,0.00,29.9,28.8,00.0,39.0,31.7,10.8,0000.0,0012.53,0003.87,0002.20
2021-10-19 03:25:00,,0818.5,5.01,0.00,29.9,28.8,00.0,39.0,31.7,10.8,0000.0,0012.76,0003.90,0002.22
2021-10-19 03:26:00,,0818.5,5.01,0.00,29.9,28.9,00.0,39.0,31.7,10.8,0000.0,0013.08,0003.93,0002.21
2021-10-19 03:27:00,,0818.5,4.99,0.00,29.9,28.9,00.0,39.0,31.7,10.8,0000.0,0012.51,0003.89,0002.19
2021-10-19 03:28:00,,0818.5,5.00,0.00,30.0,28.9,00.0,39.0,31.7,10.7,0000.0,0012.99,0003.89,0002.18
2021-10-19 03:29:00,,0818.5,5.01,0.00,30.0,28.9,00.0,39.0,31.7,10.7,0000.0,0013.69,0003.91,0002.19
2021-10-19 03:30:00,,0818.5,4.99,0.00,30.0,28.9,00.0,39.0,31.7,10.7,0000.0,0013.99,0003.93,0002.19
2021-10-19 03:31:00,,0818.5,5.01,0.00,30.0,28.9,00.0,39.0,31.8,10.7,0000.0,0013.74,0003.93,0002.18
2021-10-19 03:32:00,,0818.5,4.99,0.00,30.0,28.9,00.0,39.1,31.8,10.7,0000.0,0013.72,0003.93,0002.18
2021-10-19 03:33:00,,0818.5,5.01,0.00,30.0,29.0,00.0,39.1,31.8,10.7,0000.0,0013.72,0003.96,0002.18
2021-10-19 03:34:00,,0818.4,4.99,0.00,30.0,29.0,00.0,39.1,31.8,10.6,0000.0,0014.69,0004.00,0002.18
2021-10-19 03:35:00,,0818.5,5.01,0.00,30.1,29.0,00.0,39.1,31.7,10.6,0000.0,0014.51,0004.01,0002.17
2021-10-19 03:36:00,,0818.5,5.01,0.00,30.1,29.0,00.0,39.1,31.8,10.6,0000.0,0014.02,0003.98,0002.15
2021-10-19 03:37:00,,0818.5,4.99,0.00,30.1,29.0,00.0,39.1,31.8,10.6,0000.0,0013.94,0003.96,0002.14
2021-10-19 03:38:00,,0818.5,5.00,0.00,30.1,29.0,00.0,39.1,31.8,10.6,0000.0,0014.83,0004.06,0002.13
2021-10-19 03:39:00,,0818.5,5.01,0.00,30.1,29.1,00.0,39.1,31.9,10.6,0000.0,0014.45,0004.07,0002.12
2021-10-19 03:40:00,,0818.5,5.00,0.00,30.1,29.1,00.0,39.2,31.8,10.6,0000.0,0014.10,0004.04,0002.12
2021-10-19 03:41:00,,0818.4,5.00,0.00,30.1,29.1,00.0,39.2,31.8,10.5,0000.0,0014.38,0003.98,0002.10
2021-10-19 03:42:00,,0818.4,5.01,0.00,30.1,29.1,00.0,39.2,31.9,10.5,0000.0,0014.67,0003.92,0002.09
2021-10-19 03:43:00,,0818.4,4.99,0.00,30.1,29.1,00.0,39.2,31.9,10.5,0000.0,0014.71,0003.85,0002.09
2021-10-19 03:44:00,,0818.4,5.01,0.00,30.2,29.1,00.0,39.2,31.9,10.5,0000.0,0015.10,0003.82,0002.08
2021-10-19 03:45:00,,0818.4,4.99,0.00,30.2,29.1,00.0,39.2,31.9,10.5,0000.0,0014.43,0003.78,0002.07
2021-10-19 03:46:00,,0818.4,5.01,0.00,30.2,29.1,00.0,39.2,31.9,10.4,0000.0,0014.16,0003.78,0002.06
2021-10-19 03:47:00,,0818.5,4.99,0.00,30.2,29.1,00.0,39.2,31.9,10.4,0000.0,0013.95,0003.78,0002.07
2021-10-19 03:48:00,,0818.5,4.99,0.00,30.2,29.1,00.0,39.2,31.9,10.4,0000.0,0013.53,0003.75,0002.08
2021-10-19 03:49:00,,0818.5,5.00,0.00,30.2,29.2,00.0,39.3,31.9,10.4,0000.0,0012.94,0003.64,0002.09
2021-10-19 03:50:00,,0818.5,5.01,0.00,30.2,29.2,00.0,39.3,31.9,10.4,0000.0,0012.99,0003.58,0002.09
2021-10-19 03:51:00,,0818.5,4.99,0.00,30.2,29.2,00.0,39.3,32.0,10.4,0000.0,0012.99,0003.61,0002.09
2021-10-19 03:52:00,,0818.5,5.00,0.00,30.2,29.2,00.0,39.3,32.0,10.4,0000.0,0011.93,0003.59,0002.08
2021-10-19 03:53:00,,0818.6,5.01,0.00,30.2,29.2,00.0,39.3,32.0,10.4,0000.0,0012.02,0003.61,0002.09
2021-10-19 03:54:00,,0818.6,5.00,0.00,30.2,29.2,00.0,39.3,32.0,10.4,0000.0,0012.34,0003.65,0002.09
2021-10-19 03:55:00,,0818.5,5.00,0.00,30.2,29.2,00.0,39.3,32.0,10.4,0000.0,0011.97,0003.64,0002.09
2021-10-19 03:56:00,,0818.5,5.01,0.00,30.2,29.2,00.0,39.3,32.0,10.4,0000.0,0012.10,0003.61,0002.08
2021-10-19 03:57:00,,0818.4,4.99,0.00,30.2,29.2,00.0,39.3,31.9,10.4,0000.0,0012.17,0003.59,0002.08
2021-10-19 03:58:00,,0818.4,5.00,0.00,30.2,29.1,00.0,39.3,31.9,10.3,0000.0,0012.28,0003.61,0002.07
2021-10-19 03:59:00,,0818.4,5.00,0.00,30.2,29.2,00.0,39.3,32.0,10.3,0000.0,0013.17,0003.63,0002.07
